Showing default

ICUBE 1, 39432

Orbit data source: Space-Track

ICUBE 1, 39432 is a payload satellite owned by IST (PK) in SSO that was launched on Thu, 21 Nov 2013 UTC via a DNEPR launch vehicle from the Orenburg, Russia (OREN). Payload-class satellites include a variety of spacecraft equipped with specific instruments for various scientific and technological missions. These include communications satellites like Starlink; space stations such as the ISS; scientific satellites like the Hubble; Earth observation satellites from companies like Planet Labs, Umbra, and HawkEye 360; GPS; miniature CubeSats for education and research; and military/defense satellites.

Loading next visibility...
Identifier
39432, 2013-066S
Orbit
SSO
Country
Flag of UnknownUnknown / PAKI
Related business
Manufacturer
IST
Mission
Non-operational Amateur Technology
Bus & Motor
CUBESAT 1U, Unknown motor
Mass
1.08 kg wet, 1.08 kg dry
Launch date (UTC)
2013-11-21 (12 years ago)
Launch vehicle
DNEPR
Launch site
Orenburg, Russia (OREN)
Object type
Payload
Rocket body
Debris
Shape & HBR
Box, 0.1 m
Radar Cross Section
0.015 m², Small (<0.1 m²)

Expand to show TLE details & history
Last TLE update: 8 hours ago

TLE from 8 hours ago
0 ICUBE 1
1 39432U 13066S   25300.50714782  .00015957  00000-0  77685-3 0  9994
2 39432  97.5517 279.8270 0022017  67.5187 292.8375 15.18241441649015
Epoch: 2025-10-27T12:10Z
TLE epoch observation values (Epoch: 2025-10-27T12:10:17.571Z)
Latitude
-0.00004°
Longitude
61.14579°
Altitude
508.379 km
Speed
7.613 km/s
True Right ascension
18h 39m 18s
True Declination
0° 00' 00"
Sunlit
Object was in daylight at epoch
Visualization orbit readout
Latitude
Unknown
Longitude
Unknown
Altitude
Unknown
Speed
Unknown
Apparent Right ascension
Unknown
Apparent Declination
Unknown
Sunlit
N/A
Visualization observer readout
Local Sidereal Time
15:51:34
Azimuth
Unknown
Elevation
Unknown
Doppler factor
Unknown
Orbital elements
Apogee altitude
523.291 km
Perigee altitude
492.968 km
Semi-major axis
6,886.267 km
Eccentricity
0.0022
Inclination
97.5517°
RAAN
279.827°
Arg. of periapsis
67.5187°
True anomaly
292.60473°
Mean anomaly
292.8375°
Eccentric anomaly
292.72114°
Mean motion
3.79811 °/min
Orbital period
94.78 mins
BSTAR
0.00077685
Loading maneuver chart data...
Computing Atmospheric mass density...
Loading historical data...
Loading historical data...
Loading historical data...
Loading historical data...
Loading historical data...
Loading historical data...
Loading historical data...

Documentation

Showing up to 5 results
|